[[{"header":{"parameterUnit":"m.s-1","parameterCategory":1,"la1":30.2991,"la2":30.254,"lo1":-89.0895,"lo2":-89.0444,"dy":0.0017,"dx":0.0017,"nx":28,"ny":28,"refTime":"2024-10-14T09:00:00:Z","depth":0,"parameterNumber":2,"parameterNumberName":"U-component_of_WINDS"},"data":[0,0,0,0,0,0,0,0,0,0,0,0,0,0,0,0,0,0,0,0,0,0,0,0,0,0,0,0,0,0,0,0,0,0,0,0,0,0,0,0,0,0,0,0,0,0,0,0,0,0,0,0,0,0,0,0,0,0,2.9658,2.9658,0,2.972,2.9721,2.9721,2.9689,2.9687,2.9685,2.9684,2.9751,2.9754,2.9757,0,0,0,0,0,0,0,0,0,0,0,0,0,2.9517,2.952,2.9657,2.9658,2.9659,2.972,2.9721,2.9721,2.9689,2.9687,2.9685,2.9683,2.9749,2.9753,2.9757,0,0,0,0,0,0,0,0,0,0,0,0,0,2.9579,2.952,2.9657,2.965,2.965,2.972,2.9721,2.9722,2.9689,2.9687,2.9684,2.9682,2.9748,2.9753,2.9758,2.9839,0,0,2.9773,2.9775,0,0,0,0,0,0,0,0,2.9575,2.9584,2.965,2.9651,2.9651,2.9694,2.9695,2.9761,2.969,2.9675,2.9684,2.9681,2.9734,2.974,2.9757,2.9842,2.9845,2.9774,2.9777,2.9779,2.978,0,0,0,0,0,0,0,2.9571,2.9581,2.9682,2.9651,2.9652,2.9646,2.9652,2.9708,2.9718,2.9676,2.9674,2.9681,2.9734,2.9752,2.9759,2.9846,2.9774,2.9778,2.9781,2.9783,3.0007,3.001,0,0,0,0,0,0,2.9566,2.9577,2.968,2.9684,2.9606,2.9651,2.9657,2.9683,2.9717,2.972,2.9683,2.9679,2.9745,2.9753,2.9761,2.9862,2.9779,2.9784,2.9786,3.0004,3.0008,3.0011,0,0,0,0,0,0,2.9563,2.9576,2.9678,2.963,2.9643,2.9656,2.9685,2.9685,2.9704,2.9723,2.9725,2.97,2.9744,2.9754,2.9821,2.9864,2.9786,2.979,3.0001,3.0005,3.001,3.0063,0,0,0,0,0,0,2.9559,2.9575,2.9604,2.9631,2.9645,2.9735,2.9687,2.9688,2.9712,2.9708,2.9739,2.9742,2.9742,2.9814,2.9826,2.9869,2.9794,2.9997,3.0003,3.0008,3.0057,3.0068,3.0078,0,0,0,0,0,2.9555,2.9616,2.9605,2.9618,2.9682,2.9737,2.9746,2.9744,2.9716,2.9747,2.976,2.9741,2.9857,2.9821,2.9834,2.988,2.9994,3.0001,3.0008,3.0053,3.0066,3.0078,0,0,0,0,0,0,2.9592,2.9619,2.9608,2.9679,2.9706,2.9732,2.977,2.9758,2.9794,2.9788,2.9786,2.9793,2.9864,2.9878,2.9838,2.9963,2.9922,2.9931,2.9951,2.9964,2.9975,2.997,2.9798,0,0,0,0,0,2.9609,2.965,2.9672,2.9733,2.9747,2.9757,2.9781,2.9778,2.9806,2.9817,2.9835,2.9865,2.9908,2.9937,2.9977,3.0059,3.0068,3.0098,3.0108,3.0116,3.0125,3.0175,3.019,3.0033,3.0033,3.0033,0,0,2.9644,2.9663,2.9689,2.9741,2.9762,2.9808,2.9766,2.9815,2.985,2.9825,2.989,2.9905,2.9938,3.0015,3.0049,3.0029,3.0171,3.0125,3.0132,3.0136,3.0184,3.0198,3.0212,3.0037,3.0037,3.0036,0,0,2.9731,2.9748,2.9804,2.9826,2.9859,2.9865,2.9879,2.9907,2.9916,2.9982,2.9966,3.0008,3.0082,3.0108,3.0131,3.0235,3.0221,3.0248,3.0303,3.0351,3.0364,3.0375,3.0415,3.043,3.0256,3.0257,3.0257,0,2.977,2.9837,2.9833,2.9885,2.9911,2.9891,2.9949,2.9972,3.0016,3.0035,3.0012,3.0108,3.0128,3.0213,3.0239,3.0257,3.0275,3.0244,3.0362,3.0373,3.0383,3.0422,3.0437,3.026,3.026,3.0259,3.0259,0,2.9886,2.9933,2.9974,3.0019,3.0048,3.0103,3.0111,3.0142,3.0138,3.0148,3.0219,3.0243,3.0291,3.0311,3.0306,3.0397,3.0384,3.0361,3.032,3.0401,3.0438,3.0453,3.0265,3.0264,3.0263,3.0262,0,0,2.9996,3.0042,3.0057,3.008,3.0116,3.0154,3.021,3.0257,3.0286,3.0318,3.0368,3.0433,3.0414,3.044,3.0439,3.0481,3.0568,3.0454,3.0455,3.0478,3.0675,3.0693,3.071,3.0559,3.0561,3.0563,3.0673,0,3.0088,3.0185,3.0187,3.0277,3.0323,3.0308,3.0357,3.0387,3.04,3.0443,3.0457,3.0505,3.0474,3.049,3.0531,3.0548,3.0608,3.054,3.0608,3.061,3.0602,3.0729,3.0747,3.0849,3.0687,3.0689,3.0691,0,3.0208,3.0246,3.0341,3.0377,3.0396,3.044,3.0487,3.0527,3.0562,3.0569,3.0601,3.0595,3.0656,3.0612,3.0699,3.0653,3.0681,3.0694,3.0698,3.0706,3.0657,3.0743,3.0881,3.0898,3.0713,3.0711,3.071,0,3.0284,3.0359,3.0427,3.0446,3.0488,3.052,3.0539,3.0572,3.0602,3.0643,3.0664,3.0711,3.0738,3.0777,3.0785,3.0752,3.0874,3.0829,3.0884,3.0884,3.0911,3.0909,3.1059,3.0925,3.0925,3.0925,3.0924,0,3.0388,3.0448,3.0462,3.0504,3.0572,3.0575,3.0643,3.066,3.0691,3.0738,3.0728,3.0773,3.078,3.0829,3.0836,3.0909,3.0921,3.093,3.0932,3.0932,3.0932,3.0952,3.0946,3.0929,3.0928,3.0927,3.0926,0,3.0484,3.0495,3.0569,3.0604,3.0614,3.0664,3.0695,3.0737,3.075,3.081,3.0825,3.0845,3.0902,3.0915,3.0981,3.0986,3.1075,3.1068,3.1063,3.1063,3.1118,3.1114,3.1287,3.1312,3.116,3.1161,3.1162,0,3.055,3.0596,3.0637,3.0668,3.069,3.0739,3.0771,3.0777,3.0811,3.0858,3.0896,3.0951,3.0996,3.1088,3.111,3.1163,3.1159,3.1217,3.1167,3.1168,3.1164,3.1163,3.1169,3.1226,3.1228,3.1229,3.123,0,3.0669,3.0674,3.0718,3.0768,3.0806,3.0845,3.0882,3.0909,3.0921,3.096,3.1018,3.1053,3.1123,3.118,3.1234,3.1256,3.1247,3.1246,3.1262,3.1264,3.1261,3.1267,3.1092,3.1242,3.1241,3.124,3.1239,3.1239,3.0754,3.0796,3.0833,3.0886,3.0915,3.0951,3.0994,3.1013,3.1062,3.1119,3.112,3.1185,3.1225,3.1296,3.1322,3.1375,3.1357,3.138,3.1386,3.1392,3.1399,3.1251,3.1384,3.1384,3.1384,3.1384,3.1383,0,3.0875,3.0899,3.0947,3.1001,3.1044,3.1031,3.1073,3.111,3.1167,3.1204,3.125,3.1319,3.1376,3.1404,3.1461,3.1498,3.1496,3.1513,3.1512,3.1518,3.1409,3.1391,3.1515,3.1515,3.1515,3.1515,3.1515,3.1515,3.0943,3.1016,3.1026,3.1114,3.1138,3.1201,3.1227,3.1262,3.1293,3.1371,3.1418,3.1436,3.1472,3.1532,3.1585,3.1592,3.1615,3.1635,3.1641,3.1539,3.1525,3.1512,3.1496,3.1639,3.164,3.1746,3.1747,3.1748]},{"header":{"parameterUnit":"m.s-1","parameterCategory":1,"la1":30.2991,"la2":30.254,"lo1":-89.0895,"lo2":-89.0444,"dy":0.0017,"dx":0.0017,"nx":28,"ny":28,"refTime":"2024-10-14T09:00:00:Z","depth":0,"parameterNumber":3,"parameterNumberName":"V-component_of_WINDS"},"data":[0,0,0,0,0,0,0,0,0,0,0,0,0,0,0,0,0,0,0,0,0,0,0,0,0,0,0,0,0,0,0,0,0,0,0,0,0,0,0,0,0,0,0,0,0,0,0,0,0,0,0,0,0,0,0,0,0,0,-0.5303,-0.5302,0,-0.5256,-0.5255,-0.5255,-0.5281,-0.5283,-0.5284,-0.5285,-0.5234,-0.5232,-0.5229,0,0,0,0,0,0,0,0,0,0,0,0,0,-0.5416,-0.5414,-0.5303,-0.5302,-0.5302,-0.5256,-0.5255,-0.5254,-0.5281,-0.5283,-0.5284,-0.5286,-0.5235,-0.5232,-0.5229,0,0,0,0,0,0,0,0,0,0,0,0,0,-0.5368,-0.5413,-0.5303,-0.5309,-0.531,-0.5256,-0.5255,-0.5254,-0.5281,-0.5283,-0.5285,-0.5286,-0.5236,-0.5232,-0.5229,-0.5165,0,0,-0.5217,-0.5215,0,0,0,0,0,0,0,0,-0.537,-0.5364,-0.5309,-0.5309,-0.5309,-0.5276,-0.5277,-0.5224,-0.528,-0.5291,-0.5285,-0.5287,-0.5247,-0.5242,-0.5229,-0.5163,-0.516,-0.5216,-0.5214,-0.5212,-0.5211,0,0,0,0,0,0,0,-0.5374,-0.5366,-0.5284,-0.5308,-0.5308,-0.5315,-0.531,-0.5267,-0.5258,-0.5291,-0.5293,-0.5287,-0.5247,-0.5232,-0.5228,-0.516,-0.5216,-0.5213,-0.5211,-0.5209,-0.5044,-0.5042,0,0,0,0,0,0,-0.5377,-0.5368,-0.5286,-0.5283,-0.5345,-0.5311,-0.5306,-0.5285,-0.5259,-0.5257,-0.5285,-0.5288,-0.5238,-0.5232,-0.5226,-0.5153,-0.5212,-0.5209,-0.5207,-0.5046,-0.5043,-0.5041,0,0,0,0,0,0,-0.5379,-0.5369,-0.5288,-0.5326,-0.5316,-0.5307,-0.5283,-0.5283,-0.5268,-0.5255,-0.5253,-0.5272,-0.5239,-0.5231,-0.5181,-0.5151,-0.5207,-0.5204,-0.5048,-0.5045,-0.5042,-0.5004,0,0,0,0,0,0,-0.5382,-0.537,-0.5345,-0.5325,-0.5314,-0.5243,-0.5281,-0.528,-0.5262,-0.5265,-0.5242,-0.524,-0.524,-0.5187,-0.5177,-0.5147,-0.52,-0.5051,-0.5047,-0.5043,-0.5008,-0.5,-0.4993,0,0,0,0,0,-0.5386,-0.5335,-0.5344,-0.5334,-0.5283,-0.5241,-0.5235,-0.5237,-0.5259,-0.5235,-0.5227,-0.5241,-0.5156,-0.5181,-0.5171,-0.5139,-0.5053,-0.5048,-0.5043,-0.5011,-0.5002,-0.4993,0,0,0,0,0,0,-0.5349,-0.5332,-0.5342,-0.5283,-0.5264,-0.5246,-0.5215,-0.5226,-0.5199,-0.5204,-0.5207,-0.5201,-0.515,-0.5139,-0.5168,-0.5078,-0.5108,-0.5101,-0.5087,-0.5078,-0.5071,-0.5075,-0.5197,0,0,0,0,0,-0.5335,-0.5303,-0.5289,-0.5238,-0.5228,-0.5223,-0.5205,-0.5209,-0.5189,-0.518,-0.5168,-0.5148,-0.5118,-0.5097,-0.5067,-0.5007,-0.5003,-0.498,-0.4973,-0.4967,-0.4961,-0.4931,-0.4921,-0.5026,-0.5026,-0.5026,0,0,-0.5303,-0.529,-0.5269,-0.5231,-0.5216,-0.5184,-0.5216,-0.5179,-0.5155,-0.5174,-0.5127,-0.5118,-0.5096,-0.5041,-0.5016,-0.5031,-0.4931,-0.4961,-0.4956,-0.4953,-0.4925,-0.4916,-0.4907,-0.5023,-0.5023,-0.5024,0,0,-0.523,-0.5216,-0.5174,-0.5159,-0.5138,-0.5136,-0.5126,-0.5108,-0.5103,-0.5056,-0.5071,-0.5043,-0.4988,-0.4973,-0.4958,-0.4884,-0.4896,-0.4874,-0.4836,-0.4807,-0.4799,-0.4792,-0.4767,-0.4758,-0.4868,-0.4868,-0.4868,0,-0.5193,-0.5145,-0.515,-0.5113,-0.5097,-0.5115,-0.5074,-0.5059,-0.5029,-0.5017,-0.5034,-0.497,-0.4956,-0.49,-0.4882,-0.4868,-0.4858,-0.4877,-0.48,-0.4792,-0.4786,-0.4763,-0.4753,-0.4865,-0.4866,-0.4866,-0.4866,0,-0.5102,-0.5069,-0.5037,-0.5011,-0.4991,-0.4951,-0.4951,-0.493,-0.4937,-0.4933,-0.4887,-0.4871,-0.4841,-0.4828,-0.4832,-0.4773,-0.4783,-0.4799,-0.4829,-0.4773,-0.4752,-0.4743,-0.4862,-0.4863,-0.4864,-0.4864,0,0,-0.5002,-0.4982,-0.497,-0.496,-0.494,-0.4914,-0.4877,-0.4849,-0.4832,-0.4811,-0.4781,-0.4737,-0.4754,-0.4737,-0.474,-0.4715,-0.4661,-0.4735,-0.4735,-0.4724,-0.4597,-0.4586,-0.4576,-0.4669,-0.4667,-0.4666,-0.46,0,-0.4929,-0.4865,-0.4871,-0.481,-0.4781,-0.48,-0.4768,-0.4752,-0.4749,-0.4724,-0.4719,-0.4689,-0.4712,-0.4703,-0.4678,-0.4672,-0.4636,-0.4677,-0.4642,-0.4641,-0.4648,-0.4564,-0.4551,-0.449,-0.4592,-0.459,-0.4589,0,-0.4834,-0.4814,-0.4751,-0.474,-0.4728,-0.4698,-0.4676,-0.4651,-0.4635,-0.4634,-0.4617,-0.4626,-0.459,-0.4621,-0.4572,-0.4601,-0.4587,-0.4582,-0.458,-0.4577,-0.4612,-0.4561,-0.447,-0.4461,-0.4575,-0.4576,-0.4577,0,-0.4771,-0.4727,-0.4685,-0.4675,-0.4659,-0.464,-0.4632,-0.4618,-0.4602,-0.4582,-0.4572,-0.4547,-0.4533,-0.4514,-0.4517,-0.4539,-0.4468,-0.4498,-0.4468,-0.4468,-0.4452,-0.4453,-0.4359,-0.4441,-0.4441,-0.4441,-0.4441,0,-0.469,-0.4651,-0.4657,-0.4631,-0.4589,-0.4597,-0.4555,-0.455,-0.4538,-0.4512,-0.4526,-0.4502,-0.4506,-0.4482,-0.4483,-0.4445,-0.4438,-0.4437,-0.4438,-0.4437,-0.4437,-0.4428,-0.4433,-0.4439,-0.4439,-0.444,-0.444,0,-0.4611,-0.4613,-0.4569,-0.4559,-0.4556,-0.4526,-0.4518,-0.4494,-0.4493,-0.4461,-0.4453,-0.4451,-0.4424,-0.4425,-0.4393,-0.4394,-0.4347,-0.4352,-0.4353,-0.4355,-0.4325,-0.4328,-0.4223,-0.421,-0.4298,-0.4298,-0.4297,0,-0.4559,-0.4531,-0.452,-0.4504,-0.4496,-0.4471,-0.4456,-0.4463,-0.4446,-0.4429,-0.4407,-0.4382,-0.4362,-0.4317,-0.4313,-0.429,-0.4295,-0.426,-0.4292,-0.4292,-0.4297,-0.43,-0.4298,-0.4254,-0.4253,-0.4252,-0.4251,0,-0.4469,-0.4472,-0.4451,-0.4431,-0.4413,-0.4397,-0.4382,-0.4368,-0.4374,-0.4355,-0.4329,-0.4314,-0.4283,-0.4258,-0.4237,-0.4229,-0.4242,-0.4242,-0.4234,-0.4232,-0.4235,-0.4236,-0.4338,-0.4244,-0.4245,-0.4245,-0.4246,-0.4246,-0.4403,-0.4381,-0.437,-0.4347,-0.4337,-0.4324,-0.4303,-0.4301,-0.4279,-0.4256,-0.4261,-0.4232,-0.422,-0.4193,-0.4183,-0.4161,-0.4173,-0.4161,-0.4158,-0.4156,-0.4154,-0.4238,-0.4157,-0.4157,-0.4157,-0.4157,-0.4157,0,-0.4315,-0.4311,-0.4289,-0.427,-0.4253,-0.4268,-0.4253,-0.4237,-0.4212,-0.42,-0.4181,-0.4152,-0.4129,-0.4125,-0.4103,-0.4086,-0.4092,-0.408,-0.4082,-0.4081,-0.4142,-0.4153,-0.4077,-0.4077,-0.4077,-0.4077,-0.4077,-0.4077,-0.4268,-0.4231,-0.4234,-0.4194,-0.4189,-0.4162,-0.4153,-0.4142,-0.4133,-0.4101,-0.4082,-0.408,-0.4072,-0.405,-0.403,-0.403,-0.4022,-0.4009,-0.401,-0.4068,-0.4076,-0.4084,-0.4094,-0.4006,-0.4006,-0.3951,-0.3951,-0.395]}]]